Missoula, MT

6:33 AM MST on November 19, 2017 (GMT -0700)
Missoula International

Weather History for KMSO - November, 2012

Change the Weather History Date:

Saturday, November 10, 2012

  Actual Average Record
Temperature  
Mean Temperature 22 °F 36 °F  
Max Temperature 26 °F 44 °F 66 °F (1937)
Min Temperature 18 °F 27 °F -4 °F (1986)
Degree Days  
Heating Degree Days 43 29  
Month to date heating degree days 246 276  
Since 1 July heating degree days 1049 1218  
Cooling Degree Days 0 0  
Month to date cooling degree days 0 0  
Year to date cooling degree days 415 332  
Moisture  
Dew Point 10 °F    
Average Humidity 57    
Maximum Humidity 68    
Minimum Humidity 46    
Precipitation  
Precipitation T in 0.04 in 0.41 in (1927)
Month to date precipitation 0.20 0.32  
Year to date precipitation 12.53 12.40  
Snow  
Snow T in - - ()
Month to date snowfall 0.1  
Year to date snowfall 33.3  
Since 1 July snowfall 4.1  
Snow Depth T in    
Sea Level Pressure  
Sea Level Pressure 30.10 in    
Wind  
Wind Speed 9 mph (SE)    
Max Wind Speed 20 mph    
Max Gust Speed 23 mph    
Visibility 10 miles    
Events Snow    
T = Trace of Precipitation, MM = Missing Value Source: NWS Daily Summary

Daily Weather History Graph

Daily Weather History Graph

Search for Another Location

Airport or City:

Trip Planner

Search our weather history database for the weather conditions in past years. The results will help you decide how hot, cold, wet, or windy it might be!

Date:

Astronomy

Nov. 10, 2012 Rise Set
Actual Time 7:33 AM MST 5:07 PM MST
Civil Twilight 7:00 AM MST 5:39 PM MST
Nautical Twilight 6:23 AM MST 6:16 PM MST
Astronomical Twilight 5:48 AM MST 6:51 PM MST
Moon 3:30 AM MST (11/10) 3:06 PM MST (11/10)
Length of Visible Light 10h 39m
Length of Day
9h 34m
Waning Crescent, 14% of the Moon is Illuminated
Nov 10
Waning Crescent
Nov 13
New
Nov 20
First Quarter
Nov 28
Full
Dec 6
Last Quarter

Hourly Weather History & Observations

Time (MST) Temp. Windchill Dew Point Humidity Pressure Visibility Wind Dir Wind Speed Gust Speed Precip Events Conditions
12:53 AM 21.0 °F 7.1 °F 10.9 °F 65% 29.99 in 10.0 mi SE 16.1 mph - N/A   Overcast
1:53 AM 19.9 °F 5.7 °F 10.0 °F 65% 30.00 in 10.0 mi ESE 16.1 mph - N/A   Overcast
2:53 AM 21.0 °F 8.1 °F 10.0 °F 63% 30.01 in 10.0 mi ESE 13.8 mph - N/A   Overcast
3:53 AM 19.9 °F 6.2 °F 9.0 °F 62% 30.01 in 10.0 mi SE 15.0 mph - N/A   Overcast
4:53 AM 19.0 °F 6.1 °F 9.0 °F 65% 30.04 in 10.0 mi ESE 12.7 mph - N/A   Overcast
5:53 AM 19.0 °F 7.5 °F 9.0 °F 65% 30.06 in 10.0 mi SE 10.4 mph - N/A   Overcast
6:53 AM 18.0 °F 5.4 °F 9.0 °F 68% 30.07 in 10.0 mi SE 11.5 mph - N/A   Overcast
7:53 AM 18.0 °F 4.8 °F 8.1 °F 65% 30.09 in 10.0 mi ESE 12.7 mph - N/A   Overcast
8:53 AM 19.0 °F 5.0 °F 7.0 °F 59% 30.09 in 10.0 mi ESE 15.0 mph - N/A   Overcast
9:53 AM 19.9 °F 5.7 °F 7.0 °F 57% 30.09 in 10.0 mi SE 16.1 mph - N/A   Overcast
10:53 AM 21.9 °F 8.2 °F 7.0 °F 53% 30.10 in 10.0 mi ESE 16.1 mph - N/A   Clear
11:53 AM 23.0 °F 15.8 °F 6.1 °F 48% 30.09 in 10.0 mi East 5.8 mph - N/A   Mostly Cloudy
12:53 PM 24.1 °F - 6.1 °F 46% 30.09 in 10.0 mi Calm Calm - N/A   Partly Cloudy
1:53 PM 25.0 °F 20.7 °F 6.1 °F 45% 30.08 in 10.0 mi SSE 3.5 mph - N/A   Overcast
2:53 PM 25.0 °F 20.7 °F 8.1 °F 49% 30.09 in 10.0 mi WNW 3.5 mph - N/A   Scattered Clouds
3:53 PM 24.1 °F 19.7 °F 9.0 °F 53% 30.11 in 10.0 mi NW 3.5 mph - N/A   Overcast
4:53 PM 24.1 °F 18.2 °F 9.0 °F 53% 30.13 in 10.0 mi West 4.6 mph - N/A   Overcast
5:53 PM 21.9 °F 12.5 °F 18.0 °F 85% 30.16 in 6.0 mi SW 8.1 mph - 0.00 in Snow Light Snow
6:53 PM 21.0 °F 14.6 °F 17.1 °F 85% 30.18 in 10.0 mi South 4.6 mph - 0.00 in   Overcast
7:53 PM 21.0 °F - 17.1 °F 85% 30.19 in 8.0 mi Calm Calm - 0.00 in Snow Light Snow
8:53 PM 21.2 °F 13.6 °F 15.8 °F 80% 30.05 in 10.0 mi East 5.8 mph - N/A   Overcast
9:53 PM 21.0 °F 13.4 °F 14.0 °F 74% 30.20 in 8.0 mi ESE 5.8 mph - 0.00 in Snow Light Snow
10:53 PM 19.9 °F 13.4 °F 15.1 °F 81% 30.20 in 9.0 mi ESE 4.6 mph - 0.00 in   Overcast
11:53 PM 19.9 °F - 16.0 °F 85% 30.21 in 7.0 mi Calm Calm - 0.00 in Snow Light Snow